STARLINK-1676, 46556

Orbit data source: Space-Track

STARLINK-1676, 46556 is a payload satellite owned by SpaceX/Seattle (US) in LEO that was launched on Tue, 06 Oct 2020 UTC via an FALCON 9 launch vehicle from the Air Force Eastern Test Range (AFETR). Payloads include a variety of satellites, spacecraft, and rockets equipped with specific instruments for various scientific and technological missions. These include communications satellites like Starlink; space stations such as the ISS; scientific satellites like the Hubble; Earth observation satellites from companies like Planet Labs, Umbra, and HawkEye 360; GPS; miniature CubeSats for education and research; and military/defense satellites.

Loading next visibility...
STARLINK-1676 details
Identifier
46556, 2020-070AA
Orbit
LEO
Last TLE update8 hours ago
Origin
Flag of USSpaceX/Seattle (US)
ManufacturerSpaceX/Seattle
MissionOperational Commercial Communications
Bus & MotorSTARLINK, Unknown motor
Mass260 kg wet, ~248 kg dry
Launch date (UTC)
2020-10-06 (4 years ago)
Launch vehicle
FALCON 9
Launch site
Air Force Eastern Test Range (AFETR)
Object type
Payload
Rocket body
Debris
Shape & HBRBox + 1 Pan, 8.86 m
Radar Cross Section13.562 m², Large (>1 m²)

Expand to show TLE details & history

TLE from 8 hours ago
0 STARLINK-1676
1 46556U 20070AA  24361.12702957  .00016370  00000-0  11152-2 0  9993
2 46556  53.0561 345.4035 0001183  80.9501 279.1622 15.06403482233424
Epoch: 2024-12-26T03:02Z
Definitive object data (Epoch: 2024-12-26T03:02:55.354Z)
Latitude-0.00003°
Longitude-155.43805°
Altitude547.95 km
Speed7.589 km/s
True Right ascension23h 01m 36s
True Declination0° 00' 00"
Sunlit
Object was in daylight at TLE epoch
Visualization TLE readout
Latitude-46.59582°
Longitude150.8682°
Altitude563.732 km
Speed7.579 km/s
Apparent Right ascension20h 46m 43s
Apparent Declination-44° 56' 37"
Sunlit
Object is in daylight
Visualization observer readout
Local Sidereal Time10:04:34
Azimuth115.719° SE
Elevation-74.827°
Doppler factor1
Orbital elements
Apogee altitude548.291 km
Perigee altitude546.652 km
Semi-major axis6,925.608 km
Eccentricity0.0001183
Inclination53.0561°
RAAN345.4035°
Arg. of periapsis80.9501°
True anomaly279.14882°
Mean anomaly279.1622°
Eccentric anomaly279.15551°
Mean motion3.76579 °/min
BSTAR0.0011152
Orbital period95.6 mins
Loading maneuver chart data...
Loading historical data...
Loading historical data...
Loading historical data...
Loading historical data...
Loading historical data...
Loading historical data...
Loading historical data...

STARLINK-1676 Visibility forecast

Observer location: undefined°, undefined

Span
Click to sort rows by Start time (UTC) header in descending order
Start Az.
Max El. time (UTC)
Max El. Az.
Max El.
End time (UTC)
End Az.
7 mins2024-12-27 01:30:20.345Z212.563° SW2024-12-27 01:33:20.345Z161.837° S39.154°2024-12-27 01:37:20.345Z58.477° ENE
5 mins2024-12-27 03:11:20.345Z289.165° WNW2024-12-27 03:13:20.345Z330.535° NNW24.149°2024-12-27 03:16:20.345Z27.221° NE
4 mins2024-12-27 06:33:20.345Z348.008° N2024-12-27 06:35:20.345Z23.076° NE16.439°2024-12-27 06:37:20.345Z54.579° ENE
6 mins2024-12-27 08:12:20.345Z320.506° NNW2024-12-27 08:15:20.345Z45.628° ENE40.22°2024-12-27 08:18:20.345Z113.147° SE
4 mins2024-12-27 09:53:20.345Z252.897° W2024-12-27 09:54:20.345Z233.444° WSW18.453°2024-12-27 09:57:20.345Z185.783° SSW
|